DECAYED
Showing default

JILIN-01 GAOFEN 3C, 46455 (Decayed)

Orbit data source: Space-Track

JILIN-01 GAOFEN 3C, 46455 was a Chinese payload satellite in LEO that was launched on Tue, 15 Sep 2020 UTC via a CHANG ZHENG 11 launch vehicle from the Yellow Sea Launch Area, China (YSLA). Payload-class satellites include a variety of spacecraft equipped with specific instruments for various scientific and technological missions. These include communications satellites like Starlink; space stations such as the ISS; scientific satellites like the Hubble; Earth observation satellites from companies like Planet Labs, Umbra, and HawkEye 360; GPS; miniature CubeSats for education and research; and military/defense satellites.

Not visible in the next 10 days
Identifier
46455, 2020-065B
Orbit
Decayed
Country
Flag of CNCN / PRC
Related business
None
Manufacturer
Unknown
Mission
Decayed Commercial Imaging
Bus & Motor
Unknown
Mass
Unknown
Launch date (UTC)
2020-09-15 (6 years ago)
Launch vehicle
CHANG ZHENG 11
Launch site
Yellow Sea Launch Area, China (YSLA)
Object type
Payload
Rocket body
Debris
Shape & HBR
Box + 2 Pan, 0.8 m
Radar Cross Section
2.000 m², Medium (>0.1 m² and < 1m²)

Expand to show TLE details & history
Last TLE update: 4 months ago

TLE from 4 months ago
0 JILIN-01 GAOFEN 3C
1 46455U 20065B   26041.95028044  .15558124  25632-5  20858-3 0  9992
2 46455  97.2221 102.5402 0010133 230.6188 129.4220 16.48862085300864
Epoch: 2026-02-10T22:48Z
TLE epoch observation values (Epoch: 2026-02-10T22:48:24.230Z)
Latitude
0.00002°
Longitude
-20.58416°
Altitude
149.803 km
Speed
7.814 km/s
True Right ascension
06h 50m 09s
True Declination
0° 00' 00"
Sunlit
Object was in full shadow at epoch
Visualization orbit readout
Latitude
Unknown
Longitude
Unknown
Altitude
Unknown
Speed
Unknown
Apparent Right ascension
Unknown
Apparent Declination
Unknown
Sunlit
N/A
Visualization observer readout
Local Sidereal Time
21:37:48
Azimuth
Unknown
Elevation
Unknown
Doppler factor
Unknown
Orbital elements
Apogee altitude
145.726 km
Perigee altitude
132.518 km
Semi-major axis
6,517.259 km
Eccentricity
0.00101
Inclination
97.2221°
RAAN
102.5402°
Arg. of periapsis
230.6188°
True anomaly
129.51163°
Mean anomaly
129.422°
Eccentric anomaly
129.46682°
Mean motion
4.12521 °/min
Orbital period
87.27 mins
BSTAR
0.00020858
Loading maneuver chart data...
Computing Atmospheric mass density...
Loading historical data...
Loading historical data...
Loading historical data...
Loading historical data...
Loading historical data...
Loading historical data...
Loading historical data...

Documentation

Showing up to 5 results
|